Wind_Speed
32 34 33 37 41 45 52 53 51 49 49 49 48 50 49 48 47 45 45 44 42 43 41 39 39 36 34 32 32 29 24 22 13 21 22 13 11 4 13 13 16 18 22 31 38
33 42 38 34 38 44 47 51 55 54 52 51 52 51 51 53 52 49 48 47 47 46 46 42 42 41 38 35 34 30 27 23 27 25 18 17 12 7 8 9 7 16 20 27 32
41 41 43 42 40 40 44 50 53 57 56 54 53 54 53 53 54 53 50 49 49 48 49 48 44 44 43 37 34 30 25 26 31 32 27 19 15 10 6 14 6 9 11 23 27
45 47 46 49 45 42 44 44 53 55 58 58 56 56 55 55 55 54 53 54 53 52 51 53 49 47 47 42 35 17 36 35 35 31 30 23 19 15 10 10 7 6 13 20 28
43 42 47 49 48 44 41 46 49 58 58 61 59 58 56 57 57 55 53 53 56 57 54 54 54 50 51 50 51 28 27 32 38 34 29 26 24 23 11 9 14 9 19 13 18
47 45 47 50 47 39 38 43 46 56 58 60 63 61 59 58 61 58 57 56 56 59 57 56 58 55 53 53 57 57 39 36 35 35 31 29 29 18 12 13 10 7 4 15 16
44 46 46 50 43 38 36 40 44 52 61 59 62 65 64 59 64 62 61 58 56 60 61 59 59 60 55 59 60 58 52 44 39 36 32 32 28 24 20 13 14 14 4 10 9
49 52 53 48 39 33 37 34 38 46 55 61 59 63 65 64 68 65 65 63 60 60 63 62 61 62 63 60 58 58 56 52 48 40 36 35 31 23 23 18 14 15 10 5 8
52 53 56 46 35 30 36 36 36 40 48 58 60 60 62 68 70 67 68 68 66 63 63 64 63 64 66 65 64 61 63 56 49 42 37 36 36 29 28 23 16 14 7 7 2
47 51 55 54 34 29 32 42 40 41 46 53 60 61 60 63 68 69 71 71 70 67 65 65 64 66 66 67 65 66 66 60 52 43 40 37 39 35 30 24 19 17 15 11 2
54 56 56 55 38 26 23 35 46 46 47 50 56 59 62 62 66 72 73 75 74 71 68 67 66 64 67 66 72 74 68 65 56 48 31 37 45 42 33 29 26 22 22 22 11
54 54 55 53 34 25 20 25 35 43 50 52 53 53 57 63 65 69 74 76 76 75 73 69 66 68 70 69 68 73 71 68 63 45 28 26 42 43 38 33 28 26 28 24 26
53 53 59 52 33 22 19 19 25 35 43 51 56 55 57 61 66 68 73 77 79 79 77 72 73 71 69 71 69 68 73 68 66 58 58 41 39 51 48 43 34 29 30 23 22
59 58 60 60 39 22 21 22 24 30 37 44 51 53 52 58 61 67 71 78 80 79 80 79 76 73 71 71 71 66 72 76 70 69 68 55 28 41 50 39 40 34 31 28 25
67 64 66 60 52 31 23 26 32 34 35 39 44 50 54 59 61 65 72 76 79 80 80 81 81 76 72 69 72 69 69 77 78 75 74 62 34 41 44 44 41 40 38 37 28
74 74 67 58 50 39 34 34 38 45 47 45 43 52 57 62 63 64 70 72 78 82 82 85 85 81 77 74 69 78 72 74 81 81 71 69 66 45 33 27 34 42 41 41 35
78 81 68 65 53 46 40 41 39 44 56 59 57 53 58 62 67 66 68 69 71 77 79 85 86 85 82 76 74 78 75 70 77 82 75 79 72 69 50 42 41 34 31 38 38
85 71 66 66 56 52 47 40 28 31 42 55 67 67 62 64 68 69 71 71 72 73 78 82 85 86 85 79 77 78 78 71 69 79 81 82 80 75 65 60 51 39 38 43 43
80 72 65 64 57 54 51 44 28 22 29 42 55 72 72 74 72 72 74 74 77 80 80 79 85 91 88 87 90 85 78 76 74 79 87 91 77 77 76 71 57 47 38 38 37
78 70 60 59 58 57 50 40 31 21 20 29 44 64 82 80 79 71 74 78 83 83 79 84 85 86 91 96 89 84 78 80 76 74 86 88 82 77 76 74 68 61 52 47 37
78 63 56 50 52 54 52 43 25 22 18 25 42 54 66 82 75 81 81 80 80 78 79 79 83 89 89 90 90 86 84 78 78 79 81 80 83 79 76 72 68 66 69 51 48
75 59 51 45 49 47 48 42 31 19 18 22 33 45 54 64 82 81 84 84 81 74 80 77 77 80 75 84 90 91 90 88 84 83 85 80 83 81 74 77 72 69 62 58 54
61 44 45 41 49 44 51 47 33 18 14 22 28 35 40 53 66 84 87 83 85 81 82 80 85 81 83 84 90 96 94 92 89 94 94 85 78 84 79 77 81 76 73 62 56
56 42 39 35 47 48 53 50 37 20 10 16 21 26 36 43 55 70 83 90 86 85 86 86 83 81 82 81 88 92 95 94 95 98 97 89 80 75 79 92 92 84 80 83 77
40 37 34 32 38 44 51 53 40 22 11 10 16 22 31 42 51 59 69 79 90 89 92 91 88 87 83 82 83 86 93 97 102 104 96 90 85 86 96 92 90 86 87 87 82
30 31 31 31 34 43 49 54 45 25 12 7 15 22 27 35 43 52 61 64 73 81 89 95 91 90 84 81 81 84 86 95 106 111 103 96 91 89 90 89 89 89 88 87 86
24 25 29 30 33 41 48 51 51 28 15 8 13 20 28 30 36 44 51 58 63 70 77 86 91 93 93 85 81 83 92 96 103 112 105 99 95 91 94 90 86 89 93 93 92
Wind_Direction
323 324 298 279 267 262 260 253 246 242 240 235 231 228 229 228 227 226 223 224 223 216 211 210 207 204 199 198 178 177 164 190 201 208 211 228 249 231 238 296 328 337 13 31 27
317 321 319 305 280 260 255 254 251 243 238 235 232 227 227 229 229 227 226 224 223 220 212 210 208 207 201 199 185 183 186 197 209 209 222 219 217 218 201 262 317 360 17 24 18
314 314 317 316 301 274 260 250 248 245 238 233 231 228 225 226 228 226 225 223 223 222 216 211 209 210 206 197 189 192 201 197 203 206 211 213 200 229 249 259 300 335 345 0 2
317 311 309 317 305 289 264 255 245 242 239 232 228 228 225 225 225 223 222 222 221 220 219 214 212 210 208 198 186 182 221 217 207 212 216 217 209 219 223 265 268 297 337 335 337
322 315 318 313 312 284 262 247 247 240 237 233 226 225 225 224 225 221 220 218 218 219 219 216 212 212 207 201 192 190 191 207 203 208 212 215 212 221 225 220 246 274 287 344 339
320 322 319 317 310 283 263 247 245 238 234 232 229 222 222 222 224 221 219 217 216 217 218 217 213 212 210 205 202 210 201 199 200 209 215 217 214 212 185 189 192 260 339 340 348
330 329 321 323 301 281 265 250 239 233 231 231 229 224 220 219 222 220 220 217 215 215 217 216 215 211 212 209 207 208 205 207 211 210 211 213 215 208 200 216 233 230 318 360 1
326 331 330 321 301 278 263 248 234 232 228 229 229 227 220 218 220 218 221 219 215 214 214 215 214 212 212 212 209 209 205 207 211 208 210 210 213 208 215 218 231 242 281 265 3
329 334 340 328 308 285 253 245 236 230 227 226 228 226 223 220 218 217 219 220 218 214 213 214 213 212 211 211 210 208 208 210 214 210 211 213 214 213 221 233 236 244 262 263 92
330 333 347 341 313 289 254 233 230 231 227 225 227 229 225 224 221 218 217 219 220 216 213 213 213 212 212 212 212 209 211 213 209 210 216 217 219 213 220 224 228 219 223 242 202
334 336 346 343 322 295 256 236 231 229 231 231 228 228 229 227 222 218 217 218 218 218 215 212 214 212 211 212 211 211 208 212 207 207 206 234 228 220 217 226 222 216 220 215 240
336 343 351 348 331 301 261 241 235 234 229 231 229 226 228 229 224 221 217 216 217 218 217 214 212 214 212 212 213 212 209 207 211 197 190 237 237 227 217 223 221 224 223 228 244
347 343 351 351 340 307 280 262 243 235 230 231 232 230 228 226 223 220 219 217 215 216 217 215 214 213 214 213 211 213 210 209 210 203 191 201 230 225 220 220 216 225 221 223 239
352 349 349 352 344 320 288 271 260 246 237 229 231 230 224 227 222 218 217 217 216 215 216 216 216 214 214 215 212 212 212 210 210 206 203 208 217 228 224 219 226 222 222 221 238
349 346 346 346 346 326 305 278 261 252 245 234 231 223 219 221 219 216 214 214 216 215 214 219 217 215 214 216 214 211 211 210 210 211 206 200 193 196 217 224 220 218 218 221 225
342 342 340 343 337 329 308 286 270 254 245 242 234 221 216 216 218 215 215 212 214 214 212 215 217 216 214 214 213 216 211 211 212 212 208 207 200 177 186 197 209 224 221 227 227
341 340 337 339 335 327 314 305 282 254 239 233 230 231 218 214 216 213 215 214 214 215 215 215 216 216 215 214 214 217 212 212 213 212 211 210 207 209 200 204 203 210 221 230 238
340 340 338 336 332 327 326 318 288 255 239 232 223 226 221 217 214 213 215 213 213 214 215 214 214 216 216 214 215 216 214 211 213 213 214 217 213 215 217 223 221 232 237 236 234
340 338 337 336 329 331 332 331 316 279 243 232 224 220 223 218 213 211 214 213 215 215 214 215 213 212 213 215 216 216 213 213 213 212 214 216 215 217 220 224 220 210 226 234 220
337 336 336 333 333 331 335 337 321 291 257 219 220 217 217 220 214 213 215 213 216 216 213 214 215 212 214 215 215 216 215 216 215 215 217 218 215 217 221 223 223 220 219 228 229
337 337 333 333 327 331 337 340 330 295 265 226 213 214 218 218 218 212 214 220 218 215 217 222 217 211 212 218 217 216 216 217 218 219 219 215 216 217 221 222 222 223 221 228 227
332 334 331 330 329 334 342 342 335 311 274 236 217 216 214 216 215 216 215 217 220 221 220 220 220 220 213 214 217 216 217 216 217 219 222 216 213 216 218 220 221 223 221 220 209
332 334 328 330 331 341 349 351 343 325 296 230 218 216 208 211 212 215 219 218 218 217 221 221 222 214 214 216 215 215 217 218 220 222 220 215 212 213 214 219 219 218 212 206 212
332 331 330 335 334 347 351 354 349 341 320 232 216 209 204 203 208 210 216 220 220 221 221 223 226 222 217 217 216 217 216 220 220 225 225 219 210 211 218 218 215 213 214 214 224
330 326 332 337 339 347 349 357 352 346 317 245 224 216 209 204 206 209 214 215 220 219 223 224 226 228 222 218 215 216 216 218 223 224 225 221 218 212 214 220 222 218 218 218 220
327 331 337 339 343 348 349 355 360 346 330 271 231 227 218 212 213 214 214 216 219 219 223 226 224 227 228 221 224 216 215 218 223 223 222 222 218 219 223 221 221 219 220 224 224
325 332 336 339 343 345 346 353 1 357 340 283 239 228 225 222 224 220 217 216 215 217 219 223 222 228 228 225 220 221 218 219 222 226 225 223 222 220 222 224 224 221 220 224 226
Height
10897 10895 10892 10890 10889 10890 10892 10896 10900 10905 10910 10916 10921 10926 10931 10936 10941 10948 10954 10960 10964 10970 10976 10982 10990 10997 11003 11009 11015 11017 11021 11018 11020 11022 11025 11028 11029 11030 11022 11026 11027 11027 11024 11021 11021
10888 10885 10881 10878 10876 10876 10878 10880 10885 10891 10896 10903 10909 10915 10920 10925 10931 10940 10945 10951 10957 10963 10969 10976 10984 10992 10998 11005 11012 11017 11020 11020 11020 11024 11026 11027 11028 11029 11030 11029 11030 11032 11026 11024 11024
10880 10874 10869 10864 10861 10861 10863 10866 10869 10874 10881 10888 10896 10903 10909 10913 10921 10927 10936 10942 10948 10955 10962 10969 10976 10985 10992 11001 11011 11016 11019 11018 11019 11022 11024 11025 11026 11028 11028 11029 11031 11032 11027 11026 11028
10869 10863 10857 10851 10846 10844 10845 10849 10852 10858 10865 10873 10881 10889 10897 10903 10907 10916 10924 10931 10938 10944 10952 10960 10968 10977 10985 10997 11005 11011 11006 11012 11016 11019 11021 11024 11026 11027 11026 11028 11030 11031 11028 11028 11029
10857 10850 10843 10836 10831 10825 10826 10829 10835 10840 10849 10856 10866 10874 10884 10891 10897 10905 10912 10920 10927 10934 10943 10951 10961 10968 10978 10989 10992 10983 10990 11001 11010 11014 11017 11021 11023 11024 11027 11027 11029 11031 11031 11030 11031
10845 10837 10829 10821 10812 10807 10806 10810 10816 10822 10831 10840 10849 10859 10869 10878 10882 10892 10900 10907 10916 10924 10933 10941 10950 10959 10970 10980 10983 10982 10990 10998 11005 11009 11013 11017 11020 11024 11026 11026 11029 11030 11031 11032 11034
10833 10824 10814 10804 10795 10789 10789 10792 10797 10804 10814 10824 10834 10843 10853 10864 10867 10880 10887 10895 10905 10913 10920 10930 10940 10950 10959 10968 10975 10981 10989 10997 11000 11006 11010 11015 11019 11021 11023 11025 11027 11031 11032 11032 11034
10821 10811 10800 10788 10778 10774 10775 10776 10782 10789 10798 10809 10819 10828 10840 10847 10851 10866 10874 10882 10892 10901 10909 10918 10929 10939 10947 10957 10969 10978 10986 10990 10992 11000 11006 11011 11016 11018 11020 11024 11026 11030 11032 11033 11034
10809 10797 10785 10771 10764 10760 10761 10764 10769 10775 10784 10794 10805 10813 10825 10828 10839 10853 10861 10869 10879 10888 10898 10907 10917 10926 10937 10945 10958 10970 10974 10984 10990 11000 11004 11008 11011 11014 11018 11020 11024 11027 11030 11034 11034
10798 10787 10774 10761 10750 10747 10747 10752 10757 10764 10771 10780 10789 10799 10809 10818 10831 10839 10847 10855 10865 10876 10886 10896 10904 10914 10926 10939 10950 10957 10965 10976 10989 10997 11000 11003 11007 11011 11015 11018 11022 11025 11029 11033 11032
10787 10776 10763 10751 10739 10735 10735 10739 10745 10751 10760 10768 10774 10783 10792 10803 10811 10820 10831 10841 10852 10864 10874 10884 10894 10907 10913 10921 10930 10940 10956 10968 10979 10988 10998 11001 11004 11006 11010 11015 11020 11022 11025 11028 11030
10776 10765 10754 10742 10732 10726 10726 10729 10733 10739 10746 10752 10759 10770 10778 10785 10795 10805 10815 10826 10838 10849 10859 10874 10886 10888 10898 10908 10920 10930 10945 10959 10969 10985 11000 10983 10997 11003 11006 11010 11015 11019 11022 11026 11028
10767 10757 10746 10736 10725 10720 10718 10720 10723 10728 10731 10738 10745 10755 10761 10765 10776 10789 10799 10810 10821 10833 10848 10862 10863 10874 10887 10895 10910 10921 10934 10952 10960 10977 10981 10970 10983 10989 10995 11002 11009 11012 11017 11022 11025
10761 10750 10740 10728 10721 10716 10712 10711 10713 10716 10717 10724 10730 10737 10748 10749 10761 10772 10782 10794 10806 10819 10832 10843 10852 10866 10877 10886 10900 10911 10921 10935 10951 10958 10965 10973 10980 10981 10987 10997 11002 11007 11012 11017 11020
10754 10742 10731 10721 10713 10707 10704 10703 10701 10702 10706 10708 10714 10720 10728 10734 10743 10755 10763 10778 10791 10803 10819 10830 10841 10854 10867 10877 10888 10896 10909 10919 10929 10938 10951 10966 10974 10977 10978 10986 10992 10999 11006 11010 11014
10743 10731 10720 10711 10703 10697 10694 10690 10687 10687 10689 10692 10696 10700 10710 10720 10730 10740 10748 10761 10773 10784 10800 10811 10823 10838 10852 10861 10876 10873 10893 10906 10916 10923 10943 10953 10962 10965 10972 10979 10984 10992 10999 11005 11009
10731 10718 10707 10698 10690 10683 10678 10669 10660 10659 10661 10671 10678 10685 10693 10703 10713 10724 10735 10749 10761 10773 10788 10795 10810 10824 10837 10851 10861 10866 10883 10894 10901 10921 10931 10938 10948 10958 10962 10966 10974 10982 10989 10996 11000
10721 10706 10695 10685 10675 10667 10657 10646 10638 10635 10637 10645 10658 10665 10676 10686 10695 10709 10718 10732 10744 10755 10766 10777 10795 10810 10825 10841 10848 10852 10867 10881 10891 10906 10916 10917 10942 10949 10954 10958 10968 10975 10979 10986 10991
10709 10696 10684 10674 10663 10651 10642 10627 10620 10616 10619 10625 10637 10648 10659 10662 10678 10688 10700 10715 10725 10729 10743 10765 10775 10785 10806 10819 10817 10836 10857 10868 10871 10885 10891 10897 10927 10935 10942 10947 10959 10970 10974 10976 10981
10697 10683 10673 10666 10645 10638 10633 10622 10608 10604 10604 10610 10618 10626 10632 10645 10660 10687 10690 10693 10700 10714 10737 10739 10758 10780 10788 10791 10816 10830 10848 10852 10867 10872 10874 10897 10913 10926 10932 10939 10951 10960 10966 10969 10977
10685 10672 10662 10656 10643 10632 10620 10611 10603 10594 10593 10596 10599 10607 10616 10635 10651 10663 10673 10684 10692 10712 10722 10735 10747 10757 10770 10793 10807 10819 10829 10843 10850 10858 10859 10886 10904 10916 10921 10932 10939 10949 10957 10963 10969
10674 10662 10653 10649 10642 10631 10617 10605 10592 10587 10584 10584 10591 10595 10605 10620 10637 10647 10665 10674 10690 10708 10712 10729 10737 10755 10773 10771 10786 10804 10810 10817 10829 10836 10840 10871 10887 10902 10908 10915 10925 10935 10946 10956 10959
10665 10655 10645 10637 10634 10622 10608 10594 10588 10581 10577 10579 10583 10588 10599 10608 10624 10637 10645 10661 10673 10689 10699 10711 10709 10730 10740 10752 10767 10785 10794 10806 10818 10809 10815 10846 10871 10883 10890 10901 10905 10921 10932 10940 10947
10654 10646 10638 10630 10621 10611 10604 10593 10582 10575 10574 10574 10576 10582 10590 10600 10607 10619 10630 10642 10656 10675 10682 10688 10699 10715 10732 10743 10757 10772 10790 10794 10798 10794 10803 10835 10855 10869 10871 10868 10878 10905 10917 10928 10934
10644 10641 10635 10628 10621 10612 10602 10591 10580 10575 10571 10571 10573 10578 10585 10594 10601 10609 10616 10627 10637 10654 10660 10671 10687 10694 10709 10725 10738 10754 10770 10775 10774 10773 10800 10822 10844 10850 10849 10860 10876 10894 10906 10913 10922
10635 10633 10630 10623 10617 10610 10602 10592 10581 10573 10569 10569 10572 10576 10583 10589 10594 10599 10609 10618 10627 10638 10645 10651 10669 10679 10693 10712 10725 10737 10747 10747 10745 10749 10777 10801 10822 10837 10842 10853 10864 10880 10892 10899 10908
10631 10629 10626 10620 10614 10608 10602 10593 10584 10576 10570 10568 10570 10574 10575 10582 10588 10593 10598 10608 10615 10621 10627 10634 10658 10665 10676 10690 10705 10717 10722 10730 10736 10739 10767 10788 10805 10821 10824 10838 10850 10863 10875 10879 10887